Tracking 29059 objects as of 19-Jun-2024
HD Live streaming from Space Station
objects crossing your sky now

OBJECT E

Track OBJECT E now!
10-day predictions


NORAD ID: 57008
Int'l Code: 2023-085E
Perigee: 508.7 km
Apogee: 523.2 km
Inclination: 97.5 °
Period: 94.8 minutes
Semi major axis: 6886 km
RCS: Unknown
Launch date: June 15, 2023
Source: People's Republic of China (PRC)
Launch site: Taiyaun Space Center, China (TSC)
Your satellite tracking list
Your tracking list is empty




NASA's NSSDC Master Catalog

Two Line Element Set (TLE):
1 57008U 23085E   24170.87896694  .00014844  00000-0  71057-3 0  9993
2 57008  97.4665 274.7195 0010546  79.9774 280.2650 15.19011040 55884
Source of the keplerian elements: AFSPC